Location: Calgary
(51.0833°N, 114.0833°W)
Time: 06:18:03
(UTC-06:00)

ISS - Visible Passes

Search period start: 21 September 2017 00:00
Search period end: 01 October 2017 00:00
Orbit: 402 x 407 km, 51.6° (Epoch: 21 September)

Date Brightness Start Highest point End Pass type
(mag) Time Alt. Az. Time Alt. Az. Time Alt. Az.
25 Sep -1.6 21:02:00 10° S 21:02:53 14° S 21:02:53 14° S visible
26 Sep -1.6 20:11:06 10° SSE 20:12:10 11° SE 20:13:09 10° ESE visible
26 Sep -1.5 21:44:52 10° SW 21:45:49 18° SW 21:45:49 18° SW visible
27 Sep -3.0 20:52:48 10° SSW 20:55:44 31° SSE 20:55:53 31° SE visible
28 Sep -2.3 20:00:58 10° SSW 20:03:30 21° SE 20:05:49 11° E visible
28 Sep -2.6 21:36:20 10° WSW 21:38:27 37° WSW 21:38:27 37° WSW visible
29 Sep -3.6 20:44:02 10° SW 20:47:13 51° SSE 20:48:15 35° ESE visible
29 Sep -0.8 22:20:22 10° W 22:20:54 14° W 22:20:54 14° W visible
30 Sep -3.0 19:51:52 10° SW 19:54:52 35° SSE 19:57:55 10° E visible
30 Sep -3.3 21:27:55 10° W 21:30:36 57° W 21:30:36 57° W visible
